Date,TemperatureHighF,TemperatureAvgF,TemperatureLowF,DewpointHighF,DewpointAvgF,DewpointLowF,HumidityHigh,HumidityAvg,HumidityLow,PressureMaxIn,PressureMinIn,WindSpeedMaxMPH,WindSpeedAvgMPH,GustSpeedMaxMPH,PrecipitationSumIn
2013-9-1,86,80,77,79,76,75,96,88,73,29.94,29.83,28,11,32,0.00
2013-9-2,85,80,77,78,76,73,92,87,79,29.90,29.80,29,11,30,0.04
2013-9-3,85,78,72,77,74,67,92,86,78,29.93,29.81,33,8,36,0.07
2013-9-4,83,78,71,76,73,68,93,85,76,30.06,29.92,13,4,13,0.00
2013-9-5,86,80,76,78,76,75,98,88,74,30.08,30.00,17,3,17,0.00
2013-9-6,85,76,68,76,71,65,95,85,71,30.09,30.01,31,9,33,0.29
2013-9-7,81,74,66,68,64,62,89,72,54,30.09,29.98,19,8,19,0.00
2013-9-8,84,78,69,74,70,64,85,76,69,29.99,29.88,22,7,22,0.00
2013-9-9,85,79,73,76,72,69,89,80,68,30.14,29.97,18,5,19,0.00
2013-9-10,86,79,72,76,72,70,94,81,64,30.22,30.13,20,7,21,0.00
2013-9-11,84,78,71,74,72,68,94,81,64,30.20,30.08,12,4,14,0.00
2013-9-12,87,78,72,76,72,69,94,83,70,30.09,29.83,24,7,24,0.00
2013-9-13,87,79,73,75,72,67,88,79,65,29.83,29.72,22,8,22,0.00
2013-9-14,78,73,66,69,66,60,89,78,67,30.09,29.79,26,11,26,0.00
2013-9-15,80,74,65,71,67,63,93,81,69,30.20,30.09,22,10,22,0.00
2013-9-16,86,77,72,77,72,66,93,84,73,30.13,30.01,29,6,29,0.41
2013-9-17,78,70,65,66,63,58,87,76,62,30.25,30.11,29,14,30,0.01
2013-9-18,77,68,56,65,60,53,89,76,64,30.24,30.13,24,11,24,0.00
2013-9-19,77,70,62,65,60,56,90,71,51,30.17,30.07,16,6,17,0.00
2013-9-20,74,70,62,68,62,54,92,78,54,30.09,29.95,17,5,17,0.01
2013-9-21,79,73,67,73,69,65,97,87,71,29.96,29.74,24,7,24,1.24
2013-9-22,79,73,69,74,70,65,95,89,81,29.85,29.64,30,14,33,0.63
2013-9-23,74,68,60,66,59,52,93,74,50,30.07,29.84,20,10,21,0.00
2013-9-24,75,68,60,61,57,53,88,69,53,30.10,29.95,16,6,17,0.00
2013-9-25,74,70,65,64,60,56,84,72,64,29.95,29.84,20,8,21,0.00
2013-9-26,76,70,64,65,62,60,91,77,60,29.97,29.82,18,9,18,0.03
2013-9-27,75,68,61,63,60,55,94,78,55,30.11,29.95,26,13,26,0.00
2013-9-28,76,69,64,64,61,58,88,76,57,30.15,30.07,21,13,24,0.00
2013-9-29,77,67,59,66,62,58,96,83,61,30.10,29.98,20,9,22,0.00
2013-9-30,76,68,60,63,57,47,93,69,38,30.06,29.97,18,8,18,0.00